Weather History for Fredericksburg, VA

Change the Weather History Date:

Monday, December 3, 2012

  Actual Average (KNYG) Record (KNYG)
Temperature  
Mean Temperature 60 °F -  
Max Temperature 75 °F 49 °F 66 °F (1998)
Min Temperature 46 °F 33 °F 19 °F (2002)
Degree Days  
Heating Degree Days 4    
Growing Degree Days 10 (Base 50)    
Moisture  
Dew Point 52 °F    
Average Humidity 77    
Maximum Humidity 100    
Minimum Humidity 47    
Precipitation  
Precipitation 0.00 in - - ()
Sea Level Pressure  
Sea Level Pressure 30.21 in    
Wind  
Wind Speed 3 mph (South)    
Max Wind Speed 8 mph    
Max Gust Speed -    
Visibility 10 miles    
Events      
Averages and records for this station are not official NWS values.
T = Trace of Precipitation, MM = Missing Value Source: NWS Daily Summary

Daily Weather History Graph

Daily Weather History Graph

Search for Another Location

Airport:

Trip Planner

Search our weather history database for the weather conditions in past years. The results will help you decide how hot, cold, wet, or windy it might be!

Date:

Astronomy

Dec. 03, 2012 Rise Set
Actual Time 7:10 AM EST 4:49 PM EST
Civil Twilight 6:40 AM EST 5:18 PM EST
Nautical Twilight 6:07 AM EST 5:51 PM EST
Astronomical Twilight 5:36 AM EST 6:23 PM EST
Moon 9:31 PM EST (12/3) 10:34 AM EST (12/3)
Length of Visible Light 10h 37m
Length of Day
9h 39m
Waning Gibbous, 78% of the Moon is Illuminated
Dec 3
Waning Gibbous
Dec 6
Last Quarter
Dec 13
New
Dec 20
First Quarter
Dec 28
Full

Hourly Weather History & Observations

Time (EST) Temp. Dew Point Humidity Pressure Visibility Wind Dir Wind Speed Gust Speed Precip Events Conditions
12:15 AM 61.7 °F 51.6 °F 69% 30.16 in 10.0 mi SSW 6.9 mph - N/A   Overcast
12:35 AM 61.7 °F 51.8 °F 70% 30.16 in 10.0 mi SSW 4.6 mph - N/A   Overcast
12:55 AM 61.5 °F 51.6 °F 70% 30.17 in 10.0 mi SSW 3.5 mph - N/A   Overcast
1:35 AM 60.3 °F 51.3 °F 72% 30.16 in 10.0 mi SSW 3.5 mph - N/A   Overcast
1:55 AM 60.3 °F 51.4 °F 73% 30.17 in 10.0 mi SSW 4.6 mph - N/A   Mostly Cloudy
2:15 AM 60.3 °F 51.6 °F 73% 30.17 in 10.0 mi SW 3.5 mph - N/A   Mostly Cloudy
2:35 AM 60.3 °F 51.6 °F 73% 30.17 in 10.0 mi SW 3.5 mph - N/A   Scattered Clouds
2:55 AM 59.9 °F 51.3 °F 73% 30.17 in 10.0 mi WSW 4.6 mph - N/A   Clear
3:15 AM 59.4 °F 51.1 °F 74% 30.17 in 10.0 mi SW 3.5 mph - N/A   Clear
3:35 AM 57.4 °F 50.7 °F 78% 30.17 in 10.0 mi SW 3.5 mph - N/A   Clear
3:55 AM 57.7 °F 50.9 °F 78% 30.17 in 10.0 mi WSW 3.5 mph - N/A   Clear
4:15 AM 55.9 °F 50.5 °F 82% 30.17 in 10.0 mi Calm Calm - N/A   Clear
4:35 AM 54.7 °F 50.4 °F 85% 30.17 in 10.0 mi Calm Calm - N/A   Clear
4:55 AM 52.5 °F 48.4 °F 86% 30.17 in 10.0 mi Calm Calm - N/A   Clear
5:15 AM 50.4 °F 49.1 °F 95% 30.18 in 10.0 mi Calm Calm - N/A   Clear
5:35 AM 50.9 °F 49.5 °F 95% 30.18 in 10.0 mi Calm Calm - N/A   Scattered Clouds
5:55 AM 49.1 °F 48.6 °F 98% 30.18 in 10.0 mi Calm Calm - N/A   Clear
6:15 AM 47.7 °F 47.1 °F 98% 30.19 in 10.0 mi Calm Calm - N/A   Clear
6:35 AM 48.6 °F 48.2 °F 99% 30.20 in 10.0 mi Calm Calm - N/A   Clear
6:55 AM 46.8 °F 46.4 °F 99% 30.21 in 10.0 mi Calm Calm - N/A   Clear
7:15 AM 47.3 °F 47.3 °F 100% 30.22 in 10.0 mi Calm Calm - N/A   Clear
7:35 AM 46.8 °F 46.8 °F 100% 30.23 in 7.0 mi Calm Calm - N/A   Scattered Clouds
8:15 AM 49.1 °F 49.1 °F 100% 30.24 in 10.0 mi Calm Calm - N/A   Mostly Cloudy
8:55 AM 52.9 °F 51.8 °F 96% 30.25 in 10.0 mi Calm Calm - N/A   Scattered Clouds
9:15 AM 54.7 °F 52.2 °F 91% 30.26 in 10.0 mi Calm Calm - N/A   Scattered Clouds
9:35 AM 56.5 °F 52.9 °F 88% 30.26 in 10.0 mi Calm Calm - N/A   Scattered Clouds
10:15 AM 59.0 °F 53.8 °F 83% 30.26 in 10.0 mi Calm Calm - N/A   Scattered Clouds
10:35 AM 60.8 °F 52.7 °F 75% 30.26 in 10.0 mi Calm Calm - N/A   Clear
10:55 AM 62.8 °F 53.1 °F 71% 30.25 in 10.0 mi Calm Calm - N/A   Clear
11:15 AM 64.4 °F 53.6 °F 68% 30.25 in 10.0 mi Calm Calm - N/A   Clear
11:35 AM 64.8 °F 53.6 °F 67% 30.24 in 10.0 mi Calm Calm - N/A   Clear
11:55 AM 65.7 °F 54.1 °F 66% 30.22 in 10.0 mi Calm Calm - N/A   Clear
12:15 PM 68.0 °F 54.3 °F 62% 30.22 in 10.0 mi Calm Calm - N/A   Clear
12:35 PM 70.7 °F 55.0 °F 58% 30.21 in 10.0 mi Calm Calm - N/A   Clear
12:55 PM 72.7 °F 54.3 °F 52% 30.20 in 10.0 mi East 4.6 mph - N/A   Clear
1:15 PM 72.7 °F 54.1 °F 52% 30.20 in 10.0 mi ESE 5.8 mph - N/A   Clear
2:15 PM 74.3 °F 53.1 °F 47% 30.18 in 10.0 mi SSE 5.8 mph - N/A   Clear
2:35 PM 74.8 °F 53.4 °F 47% 30.18 in 10.0 mi South 5.8 mph - N/A   Scattered Clouds
2:55 PM 75.0 °F 53.4 °F 47% 30.18 in 10.0 mi South 8.1 mph - N/A   Scattered Clouds
3:15 PM 74.3 °F 53.4 °F 48% 30.18 in 10.0 mi Calm Calm - N/A   Scattered Clouds
3:35 PM 74.5 °F 53.8 °F 48% 30.18 in 10.0 mi SE 3.5 mph - N/A   Clear
3:55 PM 73.6 °F 53.6 °F 50% 30.19 in 10.0 mi South 4.6 mph - N/A   Clear
4:15 PM 72.9 °F 53.2 °F 50% 30.19 in 10.0 mi South 3.5 mph - N/A   Mostly Cloudy
4:35 PM 70.9 °F 53.1 °F 53% 30.20 in 10.0 mi South 4.6 mph - N/A   Overcast
4:55 PM 69.4 °F 52.9 °F 56% 30.20 in 10.0 mi SSE 4.6 mph - N/A   Scattered Clouds
5:15 PM 66.4 °F 53.2 °F 63% 30.21 in 10.0 mi SSE 4.6 mph - N/A   Clear
5:35 PM 63.3 °F 53.2 °F 70% 30.21 in 10.0 mi SSE 4.6 mph - N/A   Clear
5:55 PM 61.5 °F 52.2 °F 71% 30.21 in 10.0 mi SSE 5.8 mph - N/A   Scattered Clouds
6:15 PM 60.8 °F 52.3 °F 74% 30.22 in 10.0 mi South 4.6 mph - N/A   Mostly Cloudy
6:35 PM 62.4 °F 53.4 °F 72% 30.22 in 10.0 mi Calm Calm - N/A   Overcast
6:55 PM 62.1 °F 53.6 °F 74% 30.23 in 10.0 mi SE 3.5 mph - N/A   Overcast
7:15 PM 61.2 °F 53.2 °F 75% 30.23 in 10.0 mi SE 3.5 mph - N/A   Mostly Cloudy
7:35 PM 59.0 °F 52.9 °F 80% 30.23 in 10.0 mi Calm Calm - N/A   Scattered Clouds
7:55 PM 58.1 °F 52.5 °F 82% 30.23 in 10.0 mi Calm Calm - N/A   Clear
8:15 PM 55.9 °F 51.1 °F 84% 30.23 in 10.0 mi Calm Calm - N/A   Clear
8:35 PM 56.1 °F 51.6 °F 85% 30.24 in 10.0 mi Calm Calm - N/A   Clear
8:55 PM 54.3 °F 50.0 °F 85% 30.24 in 10.0 mi Calm Calm - N/A   Clear
9:15 PM 53.8 °F 50.5 °F 89% 30.24 in 10.0 mi Calm Calm - N/A   Clear
9:35 PM 53.1 °F 50.7 °F 92% 30.24 in 10.0 mi Calm Calm - N/A   Clear
9:55 PM 52.3 °F 48.7 °F 88% 30.24 in 10.0 mi Calm Calm - N/A   Clear
10:15 PM 51.8 °F 50.4 °F 95% 30.24 in 10.0 mi Calm Calm - N/A   Clear
10:35 PM 51.8 °F 50.0 °F 94% 30.23 in 10.0 mi Calm Calm - N/A   Scattered Clouds
10:55 PM 51.4 °F 50.4 °F 96% 30.23 in 10.0 mi Calm Calm - N/A   Mostly Cloudy
11:15 PM 52.2 °F 50.9 °F 95% 30.24 in 10.0 mi Calm Calm - N/A   Overcast
11:35 PM 52.2 °F 50.4 °F 94% 30.24 in 10.0 mi Calm Calm - N/A   Mostly Cloudy
11:55 PM 52.3 °F 50.5 °F 94% 30.24 in 10.0 mi Calm Calm - N/A   Mostly Cloudy